Flag for Russia Weather past 2 weeks in Saint-Petersburg, Russia

Now
34 °F

Fog.


Feels Like: 29 °F
Forecast: 29 / 35 °F
Wind: 6 mph from East

Location: St. Petersburg

Current Time: Feb 27, 2015 at 10:11:34 AM

Latest Report: Feb 27, 2015 at 9:30 AM


Visibility: 0 mi

Pressure: 30.21 "Hg

Humidity: 100%

Dew point: 34 °F

Location of Saint-PetersburgLocation

Historic Weather in Saint-Petersburg — Graph

°F

Saint-Petersburg temperature yesterday

Maximum temperature yesterday: 36 °F (at 12:00 AM)
Minimum temperature yesterday: 34 °F (at 6:00 AM)
Average temperature yesterday: 35 °F

Past Weeks' High & Low Weather Summary

 TemperatureHumidityPressure
High39 °F (Feb 22, 1:00 PM)100% (Feb 14, 4:30 AM)30.86 "Hg (Feb 14, 4:30 AM)
Low3 °F (Feb 16, 6:30 AM)24% (Feb 17, 3:30 PM)29.42 "Hg (Feb 22, 6:30 AM)
Average31 °F83%30.03 "Hg
* Reported Feb 12 9:00 AM — Feb 27 9:00 AM, Saint-Petersburg, Weather by CustomWeather, © 2015

Note: Actual official high and low records may vary slightly from our data, if they occured in-between our weather recording intervals... More about our weather records

Advertising

Saint-Petersburg weather history for previous 24 hours

 ConditionsComfort  
Time TempWeatherWind HumidityBarometerVisibility
9:00 AM
Fri, Feb 27
34 °FFog.6 mph100%30.21 "Hg0 mi
8:30 AM34 °FFog.1 mph100%30.21 "Hg0 mi
8:00 AM34 °FFog.1 mph100%30.24 "Hg0 mi
7:30 AM34 °FFog.1 mph100%30.24 "Hg0 mi
6:30 AM34 °FFog.1 mph100%30.24 "Hg0 mi
6:00 AM34 °FFog.1 mph100%30.24 "Hg0 mi
5:30 AM34 °FFog.1 mph93%30.24 "Hg0 mi
5:00 AM34 °FFog.1 mph100%30.24 "Hg0 mi
4:30 AM34 °FFog.No wind100%30.24 "Hg0 mi
4:00 AM34 °FFog.1 mph100%30.24 "Hg0 mi
3:30 AM34 °FFog.1 mph100%30.24 "Hg0 mi
3:00 AM34 °FFog.1 mph93%30.24 "Hg0 mi
2:30 AM34 °FFog.3 mph93%30.27 "Hg0 mi
2:00 AM34 °FFog.1 mph100%30.27 "Hg0 mi
1:30 AM34 °FFog.1 mph93%30.24 "Hg0 mi
1:00 AM32 °FFog.1 mph100%30.27 "Hg0 mi
12:30 AM34 °FFog.1 mph93%30.27 "Hg0 mi
12:00 AM34 °FFog.1 mph93%30.27 "Hg0 mi
11:30 PM
Thu, Feb 26
34 °FFog.1 mph93%30.27 "Hg0 mi
11:00 PM34 °FFog.3 mph93%30.27 "Hg0 mi
10:30 PM34 °FFog.3 mph93%30.27 "Hg0 mi
10:00 PM34 °FFog.3 mph100%30.27 "Hg0 mi
9:30 PM34 °FFog.1 mph100%30.27 "Hg0 mi
9:00 PM34 °FFog.1 mph100%30.27 "Hg0 mi
8:30 PM34 °FFog.1 mph100%30.27 "Hg0 mi
8:00 PM34 °FFog.1 mph100%30.27 "Hg0 mi
7:30 PM34 °FFog.1 mph100%30.27 "Hg1 mi
7:00 PM34 °FFog.1 mph100%30.27 "Hg1 mi
6:30 PM34 °FFog.1 mph100%30.27 "Hg1 mi
6:00 PM34 °FFog.3 mph100%30.27 "Hg1 mi
5:30 PM36 °FFog.1 mph93%30.27 "Hg1 mi
5:00 PM36 °FFog.1 mph100%30.27 "Hg1 mi
4:30 PM36 °FFog.3 mph100%30.24 "Hg1 mi
4:00 PM36 °FFog.3 mph93%30.24 "Hg1 mi
3:30 PM34 °FFog.3 mph100%30.24 "Hg1 mi
3:00 PM34 °FFog.1 mph100%30.24 "Hg1 mi
2:30 PM36 °FFog.6 mph100%30.24 "Hg1 mi
2:00 PM36 °FFog.3 mph100%30.24 "Hg0 mi
1:30 PM36 °FFog.No wind100%30.24 "Hg0 mi
1:00 PM36 °FFog.1 mph100%30.24 "Hg0 mi
12:30 PM36 °FFog.No wind100%30.24 "Hg0 mi
12:00 PM36 °FFog.No wind100%30.24 "Hg0 mi
11:30 AM36 °FFog.1 mph93%30.24 "Hg0 mi
11:00 AM34 °FFog.1 mph100%30.24 "Hg0 mi
10:30 AM34 °FFog.1 mph100%30.24 "Hg0 mi
10:00 AM34 °FFog.1 mph100%30.24 "Hg0 mi
Weather by CustomWeather, © 2015

See weather overviewHow to use our weather pages